Wind_Speed
13 12 11 11 11 11 11 10 10 10 10 9 9 9 9 8 8 8 7 6 5 5 5 4 3 3 3 3 4 4 5 5 5 5 6 6 6 6 6 6 6 7 7 7 8 9 9 10 10 11 12 13 14 15 16 17 17 18 19 19 19 20 20 20 21 22 22 22 22 22 21 19 19 20 20 21 22 22 23 25 26 28 29 31 33 35 36 38
15 14 14 14 13 13 12 12 12 12 12 11 10 10 10 10 10 10 10 8 7 6 6 5 4 4 4 4 5 5 6 6 7 7 8 8 8 7 7 7 8 8 8 8 9 10 10 10 11 12 13 14 15 16 17 17 18 18 18 19 19 20 21 21 21 20 20 19 19 19 19 18 19 20 21 22 23 24 25 27 29 31 32 34 36 37 38 39
17 17 16 16 16 15 14 14 14 14 14 13 12 11 11 11 12 12 12 12 10 9 8 7 6 5 5 5 6 7 7 7 8 8 9 10 9 9 9 9 9 9 9 9 10 10 11 11 11 12 13 14 15 16 17 17 18 18 18 19 19 19 20 20 19 19 18 17 17 18 18 19 20 22 23 24 25 26 28 29 31 33 34 36 37 38 39 40
19 18 18 17 17 17 16 16 16 15 14 14 13 13 13 13 13 13 13 14 14 13 12 10 9 8 7 7 7 8 9 9 9 9 10 11 11 11 11 11 10 10 10 10 11 11 11 11 12 12 14 14 15 16 16 17 17 18 18 18 18 18 18 18 18 18 18 18 18 19 20 21 22 24 25 26 28 28 30 31 32 34 35 36 37 38 38 39
20 19 19 18 18 17 17 17 17 16 15 15 15 15 15 15 15 15 15 15 15 15 15 14 12 11 9 8 8 10 10 10 11 11 11 12 13 13 13 13 12 12 12 12 12 12 12 12 12 13 14 15 16 16 16 16 17 17 17 18 18 18 18 18 18 19 19 19 20 21 22 23 24 26 27 28 30 31 32 33 34 35 36 37 38 39 39 39
20 19 19 18 18 17 17 17 17 16 16 16 16 16 17 17 17 17 17 17 17 17 17 17 16 14 13 11 10 11 11 12 12 12 11 12 13 14 15 15 14 14 13 13 13 13 13 13 13 14 15 15 16 16 16 16 16 17 18 18 18 18 18 18 18 19 20 20 21 22 24 25 26 28 29 30 32 33 33 34 36 37 39 40 40 41 41 42
19 19 18 18 18 17 17 17 17 17 17 18 18 18 18 19 18 19 19 19 19 18 18 19 19 18 16 14 13 12 13 13 14 14 13 13 14 15 16 16 16 15 15 15 15 14 14 14 14 15 15 16 16 16 17 17 16 17 17 17 18 18 18 19 19 20 21 21 22 23 25 26 28 29 30 32 33 34 35 35 37 38 40 41 42 42 43 43
19 18 18 18 17 17 17 17 18 18 18 19 20 20 20 20 20 20 20 21 21 21 20 20 20 20 19 17 16 15 14 15 15 16 15 15 15 15 16 17 17 17 17 16 16 16 15 15 15 16 16 16 17 17 17 17 17 17 17 18 18 19 19 20 20 21 22 22 23 25 26 28 29 31 32 33 35 36 36 37 38 39 40 42 43 43 43 43
18 18 18 17 17 17 17 18 19 19 20 20 21 22 22 22 22 22 22 23 23 23 23 22 21 21 21 20 19 18 16 15 16 17 17 16 16 16 17 18 19 18 18 17 17 16 16 16 16 16 17 17 17 17 17 17 18 18 18 19 19 20 20 21 22 22 23 24 25 26 28 29 31 32 34 35 36 37 38 39 39 40 41 42 42 43 43 43
18 18 18 18 17 18 18 19 20 21 21 22 22 23 24 24 25 25 25 25 25 25 25 25 24 22 22 22 21 19 17 17 17 17 18 17 17 17 18 19 20 20 19 18 18 18 17 17 16 17 17 18 17 18 18 19 19 19 19 20 21 21 21 22 23 24 25 25 26 27 29 31 33 34 35 36 37 38 39 40 40 41 41 41 42 42 43 44
17 17 17 17 18 18 19 20 21 21 22 23 23 24 25 26 27 27 28 28 28 28 28 27 26 25 24 24 23 21 19 18 18 18 18 18 18 18 19 20 21 21 21 20 20 19 18 18 17 18 18 18 19 19 19 20 20 20 20 21 22 22 23 24 25 26 27 28 28 29 31 33 35 36 37 38 39 39 40 41 41 41 41 42 42 43 44 44
15 16 16 17 18 18 19 20 21 21 22 23 23 24 25 26 27 28 29 29 30 30 30 29 29 27 25 25 25 23 21 20 19 19 19 18 19 19 20 20 22 22 22 22 21 20 19 18 18 19 19 19 20 20 21 21 21 22 22 23 23 24 25 25 27 28 29 30 31 31 32 34 36 37 39 40 39 39 40 41 41 41 41 42 42 43 44 45
14 15 15 16 17 17 18 19 20 21 21 22 22 23 24 26 27 28 29 29 30 30 31 30 29 27 25 25 26 25 23 21 20 20 19 19 20 21 21 21 22 23 23 22 22 21 20 20 19 19 20 20 21 21 22 23 23 23 24 24 25 25 26 27 28 29 30 32 33 33 33 34 37 39 41 42 40 40 41 42 42 42 42 42 43 43 44 45
13 13 14 14 15 16 17 18 18 19 19 20 21 22 23 25 25 26 27 28 28 28 29 29 28 26 24 24 26 25 24 22 21 20 20 20 20 21 22 22 23 23 23 22 22 21 21 20 20 20 20 21 22 23 24 25 25 24 25 26 27 27 28 29 30 30 31 33 34 35 35 35 37 40 42 43 42 41 41 42 43 43 43 44 44 46 47 47
10 11 11 12 13 14 15 16 17 18 19 19 20 22 23 24 23 23 24 25 26 26 26 26 25 24 23 22 24 24 24 23 22 21 21 21 21 22 22 23 23 23 23 22 22 22 21 21 21 21 21 22 23 24 25 25 26 26 26 28 29 30 31 31 32 32 32 34 35 36 37 36 37 39 42 44 43 42 42 43 43 44 45 45 46 48 49 49
8 9 10 11 12 14 15 16 17 18 19 20 20 22 23 23 22 22 22 23 23 23 23 23 22 21 20 20 22 23 23 23 23 22 22 22 22 22 22 23 23 23 22 22 22 22 22 21 21 22 22 24 25 25 26 26 27 28 28 30 31 32 33 34 34 34 35 36 37 38 38 38 38 40 43 44 43 44 44 44 45 46 46 47 48 49 50 49
8 9 11 12 13 15 16 18 19 20 21 21 21 22 23 23 22 21 21 21 22 21 21 21 20 20 19 19 20 22 23 23 22 22 22 22 22 22 22 22 23 23 22 22 22 22 22 22 22 23 24 25 26 26 27 27 29 30 31 31 32 33 34 35 36 36 37 38 38 39 40 39 38 41 44 45 44 45 47 47 48 48 49 49 49 50 50 50
10 11 13 14 15 17 18 20 21 23 23 23 23 23 24 24 22 21 21 21 21 21 20 20 20 19 19 19 19 20 20 21 21 22 22 22 22 22 22 22 22 23 23 23 23 23 23 23 23 24 25 25 26 27 28 29 30 31 32 33 33 33 34 36 37 38 38 39 40 41 41 40 39 42 45 46 45 47 49 49 49 50 50 50 50 50 51 52
12 13 14 16 17 18 20 21 22 24 25 25 25 24 24 24 23 21 21 22 22 21 20 19 20 19 18 17 17 17 17 18 19 20 20 21 21 21 21 21 22 22 23 23 23 23 23 23 24 25 26 26 27 27 29 30 31 32 33 34 34 34 35 36 38 39 40 41 41 42 43 42 41 43 47 48 47 49 50 50 50 50 51 51 51 51 52 53
13 14 15 17 18 19 20 22 24 25 26 27 27 26 25 25 23 22 22 22 22 21 21 20 20 19 17 16 16 15 15 15 16 17 18 19 20 20 20 21 21 22 22 22 23 23 23 24 24 26 27 27 28 28 29 31 32 34 35 35 36 36 37 38 39 40 41 42 42 43 44 44 43 46 49 50 49 50 51 50 50 51 51 51 51 51 52 53
13 14 16 17 19 20 22 23 25 26 27 28 29 28 27 25 24 23 23 22 22 21 20 20 19 18 16 15 15 16 15 14 14 15 17 18 19 20 21 21 21 22 22 22 23 23 23 24 25 26 27 28 28 29 31 32 34 35 36 37 37 38 39 40 41 43 44 44 45 46 46 46 47 49 50 50 51 51 51 50 51 51 51 51 51 52 52 51
13 15 16 18 20 21 23 25 26 27 28 29 29 29 29 27 24 23 22 22 22 20 19 19 19 18 16 14 13 14 15 15 15 14 16 18 19 20 21 21 21 21 22 22 23 23 23 24 25 27 28 28 29 30 32 33 35 36 37 38 39 40 41 42 43 44 46 47 47 48 49 48 49 51 51 52 52 52 52 52 52 51 51 51 51 51 51 50
14 16 17 19 21 23 25 26 27 29 29 30 30 30 29 27 25 23 22 21 20 19 18 18 18 18 16 14 13 12 13 15 15 15 16 18 19 20 21 21 21 20 21 23 24 25 25 25 26 28 28 29 30 31 33 35 36 37 39 40 41 42 43 44 45 46 47 49 50 51 51 50 51 52 52 53 54 53 52 52 51 50 50 50 50 50 49 48
16 17 19 21 22 24 25 27 28 29 29 30 30 30 29 26 24 22 20 18 18 18 17 17 18 18 17 16 15 14 14 15 16 16 17 18 19 21 21 21 21 22 23 25 25 25 25 26 27 29 30 31 32 33 35 36 38 39 40 41 43 44 45 46 47 48 49 50 52 52 52 52 53 53 54 55 54 53 52 51 50 49 49 48 48 47 46 45
17 18 20 22 24 25 26 26 26 26 27 27 27 27 27 25 22 20 18 15 16 16 16 16 17 17 18 17 16 16 15 15 16 17 18 18 19 20 21 22 22 23 24 25 26 26 27 28 29 30 31 33 34 36 38 39 40 41 42 43 45 46 47 48 49 50 51 52 53 53 53 54 54 54 55 55 53 52 51 50 48 47 45 45 44 44 43 43
17 19 21 22 23 24 23 23 22 22 22 23 23 24 23 22 19 17 14 13 14 15 15 16 16 16 17 16 16 17 16 16 16 16 17 18 19 20 22 23 23 24 24 26 27 28 28 30 31 32 33 34 36 38 40 41 43 44 44 46 47 47 49 50 51 52 53 53 53 52 53 55 54 54 55 53 52 51 50 48 45 43 42 42 42 42 43 43
18 19 20 20 20 20 20 20 20 20 20 20 20 20 19 17 15 13 12 12 14 14 14 15 15 15 15 14 15 16 16 16 17 17 19 20 21 21 23 24 25 26 27 28 29 29 30 31 32 34 35 36 38 40 42 43 44 45 46 47 48 49 50 51 52 53 54 54 52 51 53 54 52 52 53 51 50 49 47 44 42 41 41 42 42 42 43 44
17 18 18 19 19 19 19 19 18 18 20 21 19 16 14 13 12 10 9 12 13 12 12 13 14 15 15 15 16 16 16 17 18 19 21 21 22 23 24 25 26 27 28 29 30 31 32 33 34 35 37 39 40 42 43 44 45 46 47 48 49 50 51 52 53 53 54 54 52 51 53 53 52 51 50 49 48 45 42 41 41 41 42 42 42 43 44 45
16 17 17 18 20 19 18 18 18 19 19 19 17 13 9 8 8 7 8 12 12 10 10 11 13 14 15 17 18 18 18 19 19 19 20 21 22 23 24 25 26 28 29 30 31 32 33 34 36 37 38 40 41 42 43 44 46 46 47 49 50 50 51 52 53 53 54 54 52 51 52 52 51 50 47 47 45 42 41 41 41 42 42 42 43 44 45 46
15 16 15 17 19 18 17 18 19 20 18 16 14 9 6 5 5 6 10 12 10 10 10 10 11 12 13 15 16 16 17 17 17 18 19 20 21 23 24 25 26 28 29 31 32 33 34 35 36 37 39 39 40 42 43 45 46 47 48 49 50 51 51 52 53 53 53 53 51 51 51 51 50 48 46 45 43 42 42 42 42 42 42 42 43 45 46 47
14 14 13 15 18 17 16 17 17 19 18 15 13 9 7 7 7 8 10 11 9 9 8 7 8 8 9 10 11 13 14 15 16 18 19 20 21 23 25 26 27 28 30 31 32 33 34 35 36 37 38 39 41 42 44 46 47 48 49 49 50 50 51 52 53 52 52 51 50 50 50 49 47 46 45 44 42 42 43 42 42 42 42 43 44 45 46 47
12 12 11 14 16 15 15 16 16 18 18 15 10 7 5 4 2 1 1 2 3 3 3 3 4 6 7 8 10 12 14 16 17 19 20 21 23 24 25 27 28 29 29 30 31 32 33 35 36 37 38 39 41 43 44 45 46 47 48 49 50 50 51 52 52 51 50 50 49 48 47 47 45 44 44 43 42 42 42 42 42 42 43 44 45 46 47 48
9 10 11 13 14 14 14 15 15 16 16 15 12 7 6 8 9 8 7 5 3 3 3 5 6 7 9 11 12 14 16 18 19 21 22 22 23 24 25 26 27 29 30 31 32 32 33 34 36 37 38 39 41 42 44 45 46 48 48 49 50 50 51 51 50 50 49 48 47 46 45 45 44 43 42 41 41 41 41 41 42 43 44 45 46 47 49 51
7 8 10 11 13 14 14 14 14 15 15 15 14 12 10 10 10 8 7 5 4 5 6 7 9 10 11 13 15 16 18 19 20 21 22 23 24 24 25 26 28 29 30 32 33 34 35 35 36 37 38 40 41 43 45 46 47 49 49 49 49 48 48 49 48 48 47 46 46 45 44 44 43 43 42 41 42 41 41 43 44 45 46 46 47 48 50 52
5 7 8 10 11 12 13 13 13 13 13 13 13 12 11 9 8 7 7 6 7 7 8 9 10 12 13 14 15 17 17 18 19 21 21 22 24 25 26 27 28 30 31 32 34 35 36 36 37 38 39 41 43 45 46 47 49 50 50 49 47 46 46 46 46 46 46 46 45 44 43 43 42 43 43 43 43 44 44 45 46 47 47 47 47 49 50 52
4 6 7 9 10 10 11 12 12 13 12 12 12 11 10 9 8 8 8 8 8 8 10 10 11 12 13 15 16 17 17 18 19 21 22 23 24 26 27 28 29 30 31 33 34 35 37 37 37 39 41 42 44 45 47 48 49 49 48 47 46 45 46 45 45 45 46 47 46 44 43 42 42 43 44 44 46 47 48 49 49 49 48 47 48 50 52 53
4 5 7 8 9 10 10 11 12 13 12 12 12 11 10 10 9 9 10 10 10 10 10 11 12 13 14 15 16 18 18 19 20 22 23 24 25 26 27 28 29 30 31 33 35 36 38 38 38 39 41 43 45 46 47 47 47 46 45 44 44 45 44 45 46 46 46 47 46 43 42 41 42 44 46 47 48 50 50 50 50 49 49 49 51 52 54 56
4 5 7 8 8 9 11 12 12 12 12 12 12 12 11 11 10 11 10 11 11 11 12 12 13 14 15 15 17 19 20 21 22 23 24 25 26 26 27 28 29 31 32 34 36 38 40 41 40 40 42 44 46 47 47 46 45 43 42 42 42 43 43 44 44 44 45 46 46 44 43 43 44 45 47 49 50 51 51 50 49 49 49 50 52 54 57 60
5 5 6 7 8 9 11 12 12 12 12 12 12 12 12 11 11 11 11 12 13 13 13 14 15 16 17 17 18 19 21 23 23 24 25 25 26 26 27 29 31 32 34 36 37 39 42 44 43 44 45 47 47 47 46 44 43 42 41 41 41 41 42 42 41 41 43 45 46 46 46 47 47 47 48 50 50 50 50 49 49 49 50 52 54 57 60 62
5 5 5 6 8 9 11 12 12 12 12 12 12 12 12 12 12 12 13 13 14 15 15 16 16 17 18 19 20 21 22 23 24 24 24 25 27 28 29 31 33 34 36 38 39 40 43 46 46 46 47 47 46 45 44 42 42 41 41 40 40 40 40 40 40 41 42 45 47 48 49 49 48 48 49 49 49 49 48 48 49 51 53 56 58 61 63 65
2 4 4 6 8 10 12 13 12 11 11 11 12 12 12 12 13 14 14 15 16 16 17 18 18 19 19 20 20 20 21 22 23 25 26 28 29 30 32 33 35 36 38 39 41 43 45 48 48 46 45 44 43 42 42 41 41 41 40 40 40 40 40 42 43 44 45 47 48 49 51 50 48 48 49 49 49 49 49 50 52 55 58 60 63 65 67 69
1 3 4 6 9 10 12 13 12 11 11 12 12 13 13 14 15 15 16 17 17 18 18 19 19 19 19 20 20 21 22 23 25 27 28 30 31 33 34 36 37 38 40 41 43 45 46 47 46 44 42 41 40 40 40 40 39 39 39 39 40 41 42 44 46 47 48 49 48 49 51 50 47 48 49 49 49 50 52 54 56 59 61 63 65 67 69 72
3 3 5 7 9 11 12 13 12 12 12 12 13 14 14 15 16 17 17 18 18 19 19 19 19 19 20 21 22 23 24 26 27 29 31 32 34 35 36 37 39 40 42 43 44 45 45 44 43 42 40 38 38 38 38 38 38 38 39 40 41 42 42 44 46 47 49 48 47 47 48 47 46 48 49 49 51 53 55 58 60 62 64 66 68 70 72 74
5 4 5 7 9 11 12 12 12 13 13 14 15 15 16 17 17 18 18 18 18 18 18 19 20 21 22 24 25 26 27 29 30 32 33 34 35 36 38 39 40 41 43 43 43 43 42 42 42 41 40 38 36 37 38 39 39 39 40 42 43 43 43 44 45 47 48 48 47 46 46 46 47 48 49 51 53 56 58 60 62 64 66 68 70 72 74 75
5 5 5 7 9 11 12 12 13 14 15 16 16 17 17 18 18 18 18 17 17 18 19 20 22 23 25 27 28 30 31 32 33 34 35 36 37 37 38 40 40 41 42 41 41 40 39 38 39 40 40 40 40 40 42 42 42 41 42 43 43 43 44 44 46 46 47 48 47 45 45 46 48 50 51 53 55 57 59 61 63 65 68 69 71 72 73 74
3 4 5 8 10 12 12 13 14 15 16 17 17 18 18 18 17 18 18 18 19 20 22 23 25 27 28 29 31 32 33 34 35 36 36 37 37 38 39 39 39 39 39 38 38 37 36 36 37 38 39 40 41 42 44 45 44 43 43 43 44 44 44 45 46 45 46 48 46 44 45 47 48 50 54 55 57 59 60 62 63 65 68 69 71 72 73 75
2 4 7 9 11 12 13 14 15 16 17 17 17 17 17 17 18 18 19 20 21 23 25 26 28 29 31 31 32 33 33 34 34 35 36 36 37 37 37 37 36 36 36 36 36 37 37 36 37 39 38 39 42 42 43 44 43 43 43 44 44 44 44 45 44 44 46 48 47 46 47 49 50 53 56 57 59 60 62 64 65 67 69 70 72 73 75 76
4 7 9 10 12 13 14 16 16 17 17 17 17 17 17 18 19 21 22 23 24 26 28 29 30 31 32 32 32 32 32 33 33 34 34 34 35 35 34 34 34 34 35 37 37 38 39 38 39 39 37 37 40 42 42 42 42 42 43 44 44 44 44 44 43 44 45 47 48 48 50 52 53 55 57 59 61 62 63 65 67 69 71 72 73 75 76 77
7 9 10 11 13 14 15 16 16 16 16 17 17 17 19 20 22 23 24 26 27 28 30 31 31 31 31 31 31 32 32 32 32 32 32 32 33 33 33 34 34 35 36 37 38 38 39 39 39 39 37 36 39 41 41 42 42 41 42 44 44 44 44 44 45 45 46 48 49 51 52 54 56 57 59 61 63 64 66 67 69 71 73 73 74 76 76 77
10 11 11 12 13 14 15 15 16 16 17 18 19 20 22 24 25 26 28 28 29 29 29 30 30 30 30 30 30 31 31 31 32 32 32 32 33 34 34 34 35 35 35 36 37 37 38 39 39 41 39 38 40 42 42 43 43 42 43 43 44 44 45 46 47 48 50 51 53 54 55 56 58 60 61 63 65 66 68 69 71 73 74 75 75 76 77 77
11 12 13 13 14 14 15 16 17 18 19 20 22 24 25 27 28 28 29 28 28 28 28 28 28 29 29 29 30 30 31 31 32 32 33 33 33 34 34 34 34 35 35 36 37 38 39 40 41 43 42 40 42 44 44 45 45 44 44 44 45 47 48 49 51 52 54 56 56 57 58 59 60 61 62 64 67 68 70 71 73 74 75 76 76 76 77 77
11 12 13 14 15 15 16 18 19 21 23 24 25 26 26 27 26 26 26 26 26 26 26 27 27 27 28 29 29 30 30 31 31 31 32 32 32 32 33 34 35 36 37 38 39 40 41 41 42 43 43 42 43 45 45 46 46 45 45 46 47 49 50 51 53 54 56 57 58 59 60 62 63 63 64 65 67 70 71 73 74 76 76 77 78 77 77 77
Wind_Direction
243 249 255 261 266 271 276 282 287 291 292 293 292 292 292 292 296 301 307 315 329 342 350 349 338 319 302 296 300 305 303 292 275 264 264 270 274 278 282 286 290 294 299 304 308 311 312 313 315 316 319 320 317 314 312 310 308 306 305 304 302 301 299 296 294 294 294 293 294 293 292 292 291 289 288 288 288 289 291 292 292 292 293 294 294 294 294 295
243 247 252 257 262 267 272 277 282 286 289 290 290 288 287 285 282 283 286 290 297 305 315 323 322 310 294 283 279 281 287 287 281 272 267 267 272 277 280 284 288 291 295 301 305 307 308 308 310 314 317 316 314 312 310 309 307 307 307 305 306 306 304 302 301 300 299 298 297 294 293 294 294 292 291 290 291 292 293 295 295 295 295 295 295 295 295 295
242 246 250 254 258 263 267 272 276 280 283 286 288 288 287 285 282 279 279 279 281 285 288 294 300 302 294 283 274 270 270 274 277 275 272 271 272 274 278 281 283 286 291 297 301 303 303 303 305 309 311 311 311 310 309 309 309 309 309 308 308 308 305 306 305 304 303 302 299 297 296 295 294 294 292 293 292 293 294 296 297 297 296 296 296 297 297 297
242 245 248 252 256 259 263 267 270 273 277 281 284 286 286 286 285 282 280 277 275 276 277 279 283 288 289 284 277 271 267 268 273 274 274 274 273 274 276 278 278 281 285 291 296 298 299 299 300 303 307 309 309 309 310 311 311 310 310 309 309 307 305 305 304 303 303 301 300 299 298 296 296 295 294 295 294 294 295 296 297 297 297 297 297 297 297 297
241 244 247 251 255 257 261 263 265 268 270 273 277 280 282 283 284 283 281 278 275 273 272 273 275 277 280 281 277 272 268 268 269 270 271 273 273 272 274 276 277 278 281 284 289 294 296 297 298 302 306 309 312 312 312 312 312 311 310 309 308 307 305 303 302 302 301 301 300 299 299 299 297 295 294 296 295 295 295 296 297 296 296 296 296 296 296 296
239 243 246 250 254 256 259 260 262 264 266 269 271 274 277 279 280 281 282 280 277 273 270 269 270 271 273 275 275 272 267 265 264 263 265 269 269 269 269 272 275 277 279 281 284 289 294 297 299 302 305 309 312 312 313 314 313 312 311 309 308 307 304 302 302 301 300 300 300 300 299 299 298 296 296 296 296 296 297 298 298 299 298 296 296 296 296 297
237 241 246 248 251 254 256 258 260 263 266 269 271 273 275 277 278 280 281 281 280 276 271 268 266 267 269 270 272 272 268 263 259 258 258 262 265 266 266 268 271 275 277 280 283 287 292 296 298 300 303 307 310 311 313 314 312 311 309 309 307 305 304 302 301 300 300 301 302 301 300 300 299 298 298 298 297 298 299 300 301 301 300 298 297 297 298 298
238 241 245 248 250 252 253 256 259 263 267 270 273 275 277 278 279 279 279 280 280 278 276 270 265 263 264 267 269 270 269 264 258 256 256 257 261 264 265 266 269 272 275 279 282 285 289 292 295 297 301 305 308 310 311 311 310 308 307 306 305 304 304 302 302 301 301 302 303 303 301 301 300 299 299 299 298 299 301 301 300 300 300 300 300 299 299 298
241 243 246 248 250 251 253 256 260 264 267 270 272 274 276 277 278 278 278 277 277 276 275 273 268 262 259 263 266 267 269 266 260 257 256 256 259 263 265 266 268 270 273 277 281 283 286 289 292 295 298 302 305 307 308 307 307 307 306 306 305 304 304 303 303 303 303 303 305 304 303 302 301 301 301 300 299 300 300 300 301 301 301 301 301 300 299 299
244 246 247 249 251 254 256 259 262 264 267 269 271 273 275 277 277 277 275 274 273 273 272 271 269 263 258 258 261 264 266 267 264 259 257 257 259 261 264 266 267 269 272 275 278 281 284 287 290 293 296 300 302 303 304 304 305 306 305 304 304 304 304 304 303 303 303 302 304 305 305 303 302 301 301 300 299 300 301 300 301 301 301 300 300 299 299 298
246 248 251 252 254 257 259 262 264 266 268 271 272 274 276 276 276 275 273 272 270 270 269 268 266 264 259 255 256 260 262 265 266 262 259 258 259 261 264 266 267 268 270 272 275 279 282 286 288 292 295 298 300 301 302 302 303 304 304 303 303 303 304 303 302 302 302 302 303 305 305 302 300 300 300 299 300 301 300 299 299 299 299 298 298 298 298 298
247 250 252 254 256 259 262 264 267 269 271 273 274 275 276 275 275 273 272 271 269 269 268 267 266 265 262 254 252 257 259 262 265 263 260 259 260 261 264 266 267 267 268 270 273 276 280 283 287 291 294 297 298 299 300 301 302 303 303 303 302 302 302 302 302 303 303 302 302 302 304 303 301 301 300 299 300 300 299 298 298 298 298 298 298 298 298 300
248 250 253 255 258 261 264 266 268 270 272 275 276 277 277 277 276 275 274 272 270 269 268 268 267 268 266 257 251 254 257 260 263 263 261 258 259 262 263 265 267 267 267 269 271 274 278 282 286 290 293 295 296 297 298 299 300 301 301 301 300 301 302 302 302 302 301 300 300 301 304 305 303 301 300 299 300 301 300 299 299 298 298 299 299 299 300 301
249 252 255 258 261 264 266 268 270 273 275 277 279 280 281 280 279 278 277 274 270 268 268 268 269 270 269 259 251 252 256 258 260 262 260 258 259 261 263 265 266 267 268 269 271 274 277 282 285 288 290 292 293 295 296 297 298 299 300 299 299 299 300 300 298 299 300 300 300 301 303 306 304 302 301 300 301 302 301 300 300 299 299 300 300 301 302 302
251 255 260 263 266 269 271 273 274 276 277 279 281 283 283 283 281 279 277 274 270 268 268 269 271 272 270 262 252 252 255 256 257 259 259 258 259 261 263 265 266 267 268 270 272 275 278 281 284 287 289 290 292 294 295 296 296 297 299 299 299 299 299 298 297 299 301 301 302 302 303 306 305 303 301 300 302 302 301 301 300 300 300 300 301 301 302 303
256 261 265 269 272 275 277 279 280 281 281 281 282 283 283 283 282 279 276 273 271 270 270 271 273 273 270 263 255 254 256 256 256 255 255 256 258 261 263 265 267 268 269 271 273 276 278 281 284 286 289 290 292 293 294 295 296 297 298 299 299 299 299 300 300 301 302 303 304 304 304 306 306 304 301 301 302 302 301 301 301 301 301 301 301 302 302 302
267 271 274 277 280 282 283 285 286 286 284 283 281 281 283 283 282 279 275 272 270 270 271 272 274 273 269 264 258 257 257 256 254 252 251 253 256 260 263 266 268 269 270 272 275 277 279 281 284 286 288 291 292 293 295 296 297 298 298 299 300 301 301 301 301 303 303 304 306 305 304 307 307 305 302 302 304 303 302 302 302 302 302 303 303 302 301 300
276 278 281 283 285 287 288 289 289 288 287 285 281 279 279 280 279 277 273 270 268 268 270 271 272 271 268 264 261 258 256 254 251 249 250 252 256 260 263 266 269 271 272 274 276 277 280 283 285 287 288 290 292 294 295 296 297 297 298 299 301 302 303 303 303 304 305 306 306 306 305 307 307 305 303 304 305 303 303 303 303 303 303 303 303 301 301 300
282 283 285 286 288 289 289 290 290 290 289 288 285 280 276 275 276 273 269 268 268 268 269 269 267 266 266 264 261 257 253 251 249 250 252 254 258 261 264 267 269 272 274 276 278 280 282 285 287 288 289 290 292 293 295 296 297 298 299 300 301 302 303 303 304 305 306 306 306 306 305 306 307 304 303 304 305 304 303 303 304 304 303 302 302 302 302 301
287 288 289 290 290 290 289 289 289 289 289 288 286 283 278 273 271 269 266 265 265 267 268 268 266 265 265 264 260 252 247 247 250 253 256 258 261 264 266 267 269 272 274 277 280 282 284 287 288 288 290 292 294 296 297 298 299 300 300 301 302 303 302 302 304 306 306 306 307 306 305 306 306 304 304 305 305 304 304 304 304 304 303 302 303 303 302 301
293 293 293 293 292 292 290 289 288 286 286 284 283 282 278 273 268 265 264 263 262 264 267 269 267 264 263 264 261 251 243 243 248 255 261 264 266 268 268 269 271 274 277 279 281 283 286 288 288 289 290 293 296 298 299 299 300 301 301 302 304 303 302 302 305 306 307 307 307 306 306 307 306 305 305 304 304 304 304 305 305 304 304 304 304 302 301 300
300 299 298 296 295 293 291 289 287 285 283 281 280 278 276 273 268 262 261 261 261 262 264 267 266 261 259 260 262 256 249 249 250 257 264 267 269 269 270 272 274 276 279 282 284 286 287 288 288 289 291 294 296 298 299 300 301 302 303 303 304 303 302 303 305 306 307 308 307 306 306 307 305 305 305 304 304 304 305 306 306 305 305 305 302 301 300 300
306 304 302 300 298 296 294 292 290 287 284 281 278 276 274 272 268 261 257 257 259 260 262 264 260 256 256 255 257 259 259 260 261 263 266 268 269 268 270 272 274 278 280 282 285 287 288 289 288 289 292 294 296 298 300 301 303 304 304 304 304 303 303 304 305 306 307 307 307 306 307 306 305 305 304 304 304 305 306 307 306 305 304 302 300 300 300 301
309 308 306 305 304 302 300 297 293 290 286 282 278 275 273 271 267 261 256 253 255 258 261 261 256 252 253 253 255 260 263 264 265 266 266 266 266 268 270 272 275 279 281 284 285 286 288 288 289 291 293 295 296 299 301 302 303 304 304 304 303 303 303 304 305 306 307 307 307 307 307 306 305 305 304 305 306 307 307 306 305 304 302 300 300 301 302 302
312 312 312 311 309 308 306 302 299 295 291 287 281 276 272 269 266 260 254 249 252 257 258 257 254 250 251 252 255 259 262 264 265 265 266 266 267 269 272 276 279 281 283 285 286 287 288 289 291 293 294 295 297 300 302 303 303 304 304 303 303 303 304 305 305 306 306 307 307 307 306 305 305 305 305 306 307 307 306 305 305 303 300 300 302 303 304 303
317 318 317 317 317 316 315 314 312 308 305 298 288 280 273 268 261 254 249 246 251 257 257 255 252 250 252 253 256 258 260 263 265 264 265 267 269 272 276 279 282 284 285 285 286 288 289 290 292 293 295 296 298 301 302 303 303 303 304 303 304 304 305 305 306 306 306 307 308 307 305 305 306 306 306 306 306 304 304 304 304 302 302 303 304 305 305 303
322 324 325 327 329 329 330 331 329 326 324 317 303 288 277 267 254 245 242 245 248 254 259 257 252 251 252 252 254 257 260 262 262 263 264 267 270 275 278 281 283 284 285 286 287 289 290 292 294 295 296 297 299 301 302 303 303 303 303 304 304 304 305 305 305 306 306 307 308 306 305 305 306 305 305 305 303 303 304 305 304 304 305 306 306 306 304 302
327 332 335 338 340 340 342 343 341 338 334 329 318 299 282 264 245 235 239 244 248 254 260 260 256 254 253 251 251 255 259 263 265 267 268 271 275 278 280 282 282 284 286 287 289 291 292 294 296 296 297 298 300 301 302 302 302 302 303 303 304 304 305 305 305 305 305 306 307 306 305 305 304 304 304 304 303 305 307 307 306 306 307 307 307 305 303 302
334 340 343 345 346 345 348 350 348 344 335 330 326 307 283 261 243 239 244 245 249 257 261 262 261 258 256 256 258 260 263 267 271 274 276 279 282 283 284 285 286 287 289 290 291 293 294 295 297 297 298 299 300 301 301 301 301 302 303 303 304 304 305 305 305 306 306 307 307 305 304 304 303 305 305 304 305 308 309 308 308 307 308 308 306 303 302 301
339 345 344 348 352 352 355 356 355 354 345 335 332 322 302 285 274 267 253 246 251 263 269 272 270 267 264 265 267 269 272 275 279 282 284 286 287 288 288 288 289 291 292 293 294 294 296 297 297 298 299 300 300 300 301 301 302 303 304 304 305 305 305 305 305 305 305 306 305 305 304 304 305 306 306 306 308 309 309 309 308 308 308 306 303 301 301 300
342 343 342 353 1 1 2 2 3 5 1 348 339 335 328 309 287 270 259 255 260 268 276 282 278 278 277 275 277 282 286 288 290 291 291 292 292 292 292 292 293 294 295 296 296 297 298 298 298 299 300 301 301 301 302 302 303 304 305 305 305 304 305 305 305 305 305 306 306 306 305 306 307 308 308 309 310 310 310 309 308 308 306 303 301 300 300 300
336 339 349 3 10 9 8 9 9 11 12 6 351 339 346 358 20 75 279 276 272 273 292 301 296 299 298 295 294 294 295 295 295 295 295 296 296 295 295 296 297 297 297 297 297 298 299 300 300 301 302 302 302 302 303 303 304 304 305 305 305 305 304 304 305 306 307 308 308 307 308 308 309 309 309 310 309 309 309 308 307 305 302 301 300 300 300 300
326 346 6 13 16 18 18 20 21 21 23 23 16 12 32 47 52 55 54 51 33 359 342 325 317 312 303 301 298 295 295 296 296 296 297 297 297 297 298 298 299 299 299 299 299 299 300 301 301 302 303 303 303 304 304 305 305 305 306 306 307 307 306 306 307 307 309 309 309 309 309 309 308 308 308 307 307 307 307 305 303 302 301 301 301 301 301 300
327 4 18 20 23 25 25 28 32 32 32 30 25 21 25 29 31 28 24 15 349 332 323 315 310 305 299 297 295 294 295 296 297 297 298 299 299 299 300 300 301 301 301 301 301 302 302 303 304 305 306 306 305 306 306 307 307 307 308 308 309 309 308 309 309 309 310 309 308 309 308 307 307 307 306 306 307 307 306 304 303 303 303 303 303 302 302 301
346 17 26 31 32 29 26 25 28 30 29 26 21 19 16 16 16 7 353 343 331 321 315 310 306 303 302 300 299 299 300 300 299 299 299 300 300 301 302 302 303 303 303 303 303 304 304 306 308 308 308 308 308 308 309 309 309 309 310 310 310 310 309 310 310 310 309 308 308 308 307 307 307 306 307 308 308 308 306 305 305 305 306 306 305 304 303 302
7 25 37 42 38 29 23 19 17 18 17 13 12 14 12 10 9 1 350 343 336 328 323 319 315 311 309 308 306 305 305 304 303 301 302 303 303 303 304 304 304 304 304 305 305 305 305 307 309 310 310 310 310 310 310 310 310 310 311 310 310 310 309 309 309 310 309 307 307 308 307 308 308 308 309 309 308 307 306 307 308 309 309 308 307 305 305 304
29 43 46 41 35 28 21 16 14 12 9 7 7 9 9 6 4 359 351 345 339 334 330 324 320 317 314 311 308 307 307 305 304 304 304 305 305 305 306 306 306 306 307 307 307 306 305 307 310 310 310 310 309 310 310 311 311 311 310 310 310 309 310 310 310 309 308 306 306 307 308 309 309 309 309 308 307 307 307 309 310 310 309 308 307 306 306 305
53 57 48 37 31 26 21 16 13 11 9 7 5 4 4 2 358 353 347 342 338 334 330 325 321 318 315 312 310 309 309 308 307 307 307 307 308 308 308 308 308 308 308 308 308 308 306 307 309 311 311 311 310 311 311 311 311 310 310 310 309 310 310 310 309 309 307 306 306 307 309 310 311 311 310 309 308 308 309 310 310 309 308 307 307 306 305 304
71 64 49 39 32 25 20 15 11 10 9 6 2 359 358 355 350 345 341 337 334 332 328 325 322 319 316 314 313 311 310 309 310 310 310 311 311 311 310 310 309 309 309 309 309 310 309 309 310 312 312 312 312 312 312 312 311 310 310 310 310 310 309 308 309 308 308 307 308 309 311 311 312 312 311 309 309 309 309 309 308 307 307 306 305 304 304 304
79 65 52 41 30 22 16 11 8 8 6 2 358 354 351 348 343 339 336 334 331 329 326 323 321 319 317 316 315 314 313 312 313 314 314 314 313 313 312 311 311 310 310 311 311 311 311 310 312 313 314 313 313 313 312 312 311 311 311 312 311 310 309 308 308 309 309 308 309 311 310 310 312 312 309 307 307 308 308 307 306 306 306 305 305 305 305 305
73 54 44 32 23 15 9 6 4 2 1 357 353 349 346 343 339 336 333 330 328 326 324 322 321 319 318 317 317 318 317 317 316 316 316 315 313 313 312 311 311 312 312 313 313 312 312 312 313 314 314 313 313 313 312 312 312 313 313 313 312 311 312 311 310 311 310 310 311 311 309 310 312 310 306 306 307 307 307 307 307 307 307 307 307 306 306 306
338 24 24 18 13 6 2 0 359 356 353 350 346 343 341 338 335 332 329 328 326 325 324 323 322 322 322 321 321 321 320 319 317 316 315 314 314 313 312 312 313 314 314 314 313 313 312 312 313 314 313 314 314 314 313 313 313 314 314 314 313 314 314 313 312 312 311 311 312 309 309 312 311 307 307 308 308 309 309 309 309 309 308 308 307 307 306 306
274 331 1 4 3 358 354 353 352 350 347 343 340 337 335 332 330 329 327 326 325 325 325 325 325 325 324 323 321 320 320 319 317 315 315 314 314 314 314 314 314 314 313 313 313 313 313 314 314 314 315 316 316 315 314 313 314 315 315 314 314 314 314 312 311 310 309 310 310 308 309 311 309 307 309 310 310 311 311 310 310 309 308 307 307 307 306 306
277 303 338 350 352 349 347 345 343 341 340 337 335 332 331 329 327 327 326 326 326 325 326 327 326 325 324 322 321 319 319 318 317 316 315 315 315 315 315 314 314 314 313 314 314 315 315 317 317 316 317 318 317 315 314 313 315 316 316 314 314 313 312 310 309 309 310 310 309 309 311 310 308 310 311 311 311 312 311 310 309 308 308 307 306 306 305 305
292 304 319 334 339 338 338 337 335 334 334 333 331 329 329 328 327 327 327 327 327 326 326 326 325 324 323 321 320 319 318 317 316 316 316 315 315 315 314 314 314 315 315 316 316 316 318 319 318 318 319 320 319 317 316 316 317 317 316 314 313 313 312 310 310 310 310 310 310 311 311 310 311 313 312 312 312 310 309 308 307 307 306 305 305 305 305 306
305 315 317 324 330 332 333 333 331 331 331 331 330 329 329 329 329 329 329 328 327 325 324 324 323 322 321 319 318 318 317 317 316 316 316 315 315 315 316 316 316 317 317 317 317 318 319 319 317 317 319 319 318 317 316 316 317 317 316 314 314 313 312 311 311 311 310 310 311 311 309 309 311 311 311 310 309 307 306 306 305 305 305 305 306 307 308 309
340 325 325 326 330 332 331 330 330 330 330 330 330 330 330 330 331 331 329 327 325 323 322 321 320 318 317 316 316 316 315 315 316 316 316 317 317 317 318 318 319 319 319 318 318 317 317 317 316 316 318 318 316 315 315 315 316 316 315 314 314 313 312 311 312 312 310 310 310 310 309 309 310 309 308 308 306 306 306 306 307 307 307 309 311 312 312 313
337 329 330 331 331 331 330 329 329 329 329 330 330 330 330 329 329 328 326 324 322 320 318 317 316 315 315 315 316 316 317 317 318 318 319 319 320 320 320 320 319 319 318 317 317 316 316 317 316 317 319 318 315 314 315 314 315 316 315 314 314 313 312 312 312 310 308 307 308 309 309 310 310 309 308 308 308 309 310 310 311 311 312 314 314 314 313 313
342 338 336 333 331 330 328 328 329 330 331 331 330 329 327 326 325 323 321 319 317 316 316 316 316 317 318 319 321 322 322 323 323 323 323 323 322 321 321 320 319 319 318 317 318 318 318 319 319 319 321 319 315 315 315 316 316 317 315 314 314 313 313 312 311 309 307 308 309 310 311 311 311 311 311 311 312 313 314 314 315 315 315 315 314 313 312 312
345 340 336 332 331 330 329 330 331 332 331 330 328 326 324 323 321 320 318 318 318 318 320 321 323 324 326 327 327 328 328 328 327 326 325 324 323 322 322 322 321 321 321 320 320 321 321 321 321 321 322 321 318 317 318 317 317 317 316 316 315 315 314 312 311 310 310 311 312 313 314 314 313 313 314 315 316 316 316 316 316 315 315 314 313 312 312 312
342 338 336 334 334 334 333 333 332 330 329 327 325 324 322 321 320 320 321 323 324 326 328 330 331 331 331 331 331 330 330 329 328 327 327 326 326 326 325 325 325 325 325 324 323 323 323 323 323 322 323 323 320 320 320 319 319 320 319 318 317 316 315 314 313 313 314 315 316 317 316 315 315 316 317 317 318 317 317 316 315 314 314 314 313 314 314 314
341 339 337 337 337 336 333 332 330 328 327 325 324 324 323 324 326 328 331 332 334 335 336 336 335 334 334 333 333 332 331 331 330 330 330 329 329 329 328 328 328 328 328 326 325 325 324 324 324 323 323 324 323 322 323 322 322 321 320 319 318 318 316 315 315 316 317 317 318 318 317 316 317 317 317 318 317 316 316 316 315 315 316 316 316 316 316 315
Height
5825 5826 5827 5827 5828 5828 5829 5830 5830 5831 5831 5831 5832 5832 5832 5832 5832 5833 5833 5833 5834 5834 5834 5834 5834 5834 5834 5834 5834 5834 5834 5834 5835 5835 5835 5835 5835 5834 5834 5834 5833 5833 5832 5832 5832 5832 5831 5831 5831 5830 5829 5829 5828 5828 5827 5826 5826 5825 5824 5823 5822 5821 5821 5820 5819 5819 5818 5817 5816 5815 5815 5814 5813 5813 5812 5812 5812 5811 5811 5810 5809 5808 5808 5807 5806 5805 5803 5802
5824 5825 5826 5827 5827 5828 5828 5829 5829 5830 5830 5831 5831 5831 5831 5832 5832 5832 5832 5833 5833 5833 5833 5834 5834 5834 5834 5834 5834 5834 5834 5834 5834 5834 5834 5834 5834 5834 5833 5833 5832 5832 5832 5831 5831 5831 5830 5830 5829 5829 5828 5828 5827 5827 5826 5825 5824 5823 5822 5821 5820 5819 5818 5817 5817 5816 5816 5815 5814 5813 5813 5812 5811 5811 5810 5810 5809 5809 5808 5807 5806 5805 5805 5804 5802 5801 5800 5798
5824 5825 5826 5826 5827 5827 5828 5828 5829 5829 5829 5830 5830 5830 5830 5831 5831 5831 5831 5832 5832 5833 5833 5833 5833 5833 5833 5833 5833 5833 5833 5833 5833 5833 5833 5833 5833 5833 5832 5832 5831 5831 5831 5830 5830 5830 5829 5829 5829 5828 5828 5827 5826 5825 5824 5823 5822 5821 5820 5819 5818 5817 5816 5815 5814 5814 5814 5813 5812 5811 5811 5810 5809 5809 5808 5808 5807 5807 5806 5804 5803 5802 5801 5800 5798 5797 5796 5794
5823 5824 5825 5825 5826 5827 5827 5828 5828 5828 5829 5829 5829 5829 5830 5830 5830 5830 5830 5831 5831 5831 5832 5832 5832 5832 5833 5833 5832 5832 5832 5832 5832 5832 5832 5832 5832 5832 5831 5831 5830 5830 5830 5830 5829 5829 5828 5828 5828 5827 5827 5826 5825 5824 5823 5822 5821 5819 5818 5817 5817 5816 5814 5814 5813 5812 5812 5811 5810 5810 5809 5808 5807 5807 5806 5805 5804 5804 5803 5801 5800 5799 5798 5797 5795 5794 5792 5790
5821 5822 5823 5824 5825 5826 5826 5827 5827 5828 5828 5828 5829 5829 5829 5829 5829 5829 5829 5829 5830 5830 5830 5831 5831 5831 5832 5832 5832 5831 5831 5831 5831 5831 5831 5831 5831 5831 5830 5830 5829 5829 5829 5829 5828 5828 5827 5827 5826 5826 5825 5824 5823 5822 5821 5820 5819 5818 5817 5816 5815 5814 5813 5812 5812 5811 5810 5809 5809 5808 5807 5806 5805 5804 5803 5802 5801 5801 5800 5798 5797 5796 5794 5793 5792 5791 5789 5787
5820 5821 5822 5823 5824 5824 5825 5826 5826 5827 5827 5827 5828 5828 5828 5828 5828 5828 5828 5828 5828 5829 5829 5829 5830 5830 5830 5831 5831 5830 5830 5830 5830 5829 5829 5829 5829 5829 5829 5829 5829 5828 5828 5828 5827 5827 5826 5825 5825 5824 5824 5823 5822 5821 5819 5818 5817 5816 5815 5814 5813 5813 5812 5811 5810 5809 5808 5808 5807 5805 5804 5803 5802 5801 5801 5799 5798 5797 5796 5795 5793 5791 5789 5789 5788 5786 5785 5783
5819 5820 5821 5822 5822 5823 5824 5824 5825 5825 5825 5826 5826 5826 5826 5826 5827 5827 5827 5827 5827 5827 5827 5827 5828 5828 5829 5829 5829 5829 5829 5829 5828 5828 5828 5828 5828 5828 5828 5828 5827 5827 5827 5826 5826 5825 5824 5824 5823 5823 5822 5821 5820 5819 5818 5817 5816 5815 5814 5813 5812 5811 5810 5809 5809 5808 5807 5806 5805 5803 5802 5801 5800 5799 5798 5796 5795 5794 5793 5791 5789 5787 5784 5783 5783 5782 5780 5778
5818 5819 5820 5820 5821 5822 5822 5823 5823 5823 5824 5824 5824 5824 5824 5825 5825 5825 5825 5825 5825 5825 5825 5825 5826 5826 5827 5827 5827 5827 5827 5827 5827 5827 5826 5826 5826 5827 5827 5826 5826 5826 5825 5825 5824 5824 5823 5822 5822 5821 5820 5820 5818 5817 5816 5815 5814 5813 5812 5811 5810 5810 5809 5808 5807 5806 5805 5804 5803 5801 5800 5798 5797 5796 5794 5793 5792 5790 5789 5788 5786 5784 5781 5778 5776 5776 5775 5773
5818 5818 5819 5819 5820 5820 5821 5821 5821 5822 5822 5822 5822 5822 5822 5822 5822 5823 5823 5823 5823 5823 5823 5823 5823 5824 5825 5825 5825 5825 5826 5825 5825 5825 5825 5825 5825 5825 5825 5825 5824 5824 5823 5823 5822 5822 5821 5821 5820 5820 5819 5818 5817 5816 5815 5814 5813 5812 5811 5810 5809 5808 5807 5806 5805 5804 5803 5802 5801 5799 5797 5796 5794 5793 5791 5790 5788 5787 5785 5784 5782 5779 5777 5774 5772 5770 5769 5768
5817 5817 5818 5818 5819 5819 5819 5820 5820 5820 5820 5820 5820 5820 5820 5820 5820 5820 5820 5820 5820 5820 5820 5820 5820 5821 5822 5823 5823 5823 5824 5823 5823 5823 5823 5823 5823 5823 5823 5823 5822 5822 5822 5821 5821 5820 5820 5819 5819 5818 5817 5816 5815 5814 5813 5812 5811 5810 5809 5808 5807 5806 5805 5804 5803 5802 5801 5800 5798 5797 5795 5793 5791 5790 5788 5786 5785 5783 5781 5779 5778 5775 5773 5771 5768 5765 5764 5763
5816 5816 5817 5817 5817 5818 5818 5818 5818 5819 5818 5818 5818 5818 5818 5818 5818 5818 5818 5818 5817 5817 5817 5817 5817 5818 5819 5820 5820 5821 5821 5821 5821 5821 5821 5821 5821 5821 5821 5821 5820 5820 5820 5819 5819 5818 5818 5817 5816 5816 5815 5814 5813 5812 5811 5810 5809 5809 5808 5807 5806 5804 5803 5802 5801 5799 5798 5797 5796 5794 5793 5790 5788 5787 5785 5783 5781 5780 5778 5775 5774 5771 5769 5767 5764 5761 5759 5757
5814 5815 5815 5816 5816 5816 5817 5817 5817 5817 5817 5817 5817 5817 5816 5816 5815 5815 5815 5815 5815 5815 5814 5814 5815 5816 5817 5817 5818 5818 5819 5819 5819 5819 5819 5819 5819 5819 5819 5819 5819 5818 5818 5818 5817 5816 5816 5815 5814 5813 5812 5812 5811 5810 5809 5808 5807 5806 5805 5805 5804 5802 5801 5800 5798 5797 5796 5794 5793 5792 5790 5787 5785 5783 5781 5779 5778 5776 5774 5771 5770 5767 5764 5762 5759 5757 5754 5752
5813 5814 5814 5815 5815 5815 5815 5815 5815 5815 5815 5815 5815 5814 5814 5813 5812 5812 5812 5812 5812 5812 5812 5812 5812 5813 5814 5815 5815 5816 5816 5817 5817 5817 5817 5817 5817 5817 5817 5817 5817 5816 5816 5815 5815 5814 5813 5813 5812 5811 5810 5810 5809 5808 5807 5806 5805 5804 5803 5802 5801 5800 5799 5798 5796 5795 5793 5791 5790 5788 5787 5784 5781 5779 5776 5775 5774 5772 5769 5767 5765 5763 5760 5757 5754 5752 5750 5748
5813 5813 5813 5814 5814 5814 5814 5814 5814 5814 5813 5813 5813 5812 5811 5810 5810 5809 5809 5809 5809 5809 5809 5809 5810 5811 5811 5812 5813 5813 5814 5814 5815 5815 5815 5815 5815 5815 5815 5815 5815 5814 5814 5813 5813 5812 5811 5810 5810 5809 5808 5807 5806 5806 5805 5804 5803 5802 5801 5800 5799 5798 5797 5796 5794 5792 5790 5788 5786 5785 5783 5781 5777 5775 5772 5769 5769 5767 5764 5762 5760 5757 5755 5753 5749 5746 5744 5742
5812 5812 5812 5812 5812 5812 5812 5812 5812 5812 5811 5811 5810 5810 5809 5808 5808 5807 5806 5806 5806 5806 5806 5807 5807 5808 5809 5809 5810 5811 5811 5812 5812 5813 5813 5813 5813 5813 5813 5813 5813 5812 5812 5811 5810 5810 5809 5808 5808 5807 5806 5805 5804 5804 5803 5801 5800 5799 5798 5797 5796 5795 5794 5792 5790 5789 5787 5785 5783 5781 5779 5777 5773 5771 5767 5765 5764 5762 5759 5758 5755 5752 5750 5748 5745 5741 5739 5736
5811 5811 5811 5811 5811 5811 5811 5810 5810 5810 5809 5809 5808 5808 5807 5806 5806 5805 5804 5804 5804 5804 5804 5805 5805 5806 5806 5807 5807 5808 5809 5809 5810 5810 5810 5811 5811 5811 5811 5811 5810 5810 5810 5809 5808 5807 5807 5806 5805 5805 5804 5803 5802 5801 5800 5799 5798 5797 5796 5795 5793 5791 5790 5788 5786 5785 5783 5781 5779 5776 5774 5772 5769 5766 5763 5761 5760 5757 5754 5752 5749 5747 5745 5743 5740 5737 5733 5730
5810 5810 5810 5810 5810 5810 5809 5809 5808 5808 5807 5807 5806 5806 5805 5804 5804 5803 5802 5802 5802 5802 5802 5803 5803 5804 5804 5804 5805 5806 5806 5806 5807 5807 5808 5808 5808 5809 5808 5808 5808 5808 5808 5807 5806 5805 5805 5804 5803 5803 5802 5801 5800 5799 5798 5797 5795 5794 5792 5791 5790 5788 5786 5784 5782 5780 5779 5777 5775 5772 5770 5768 5764 5761 5758 5756 5755 5751 5748 5746 5743 5741 5739 5736 5734 5731 5727 5724
5810 5810 5809 5809 5809 5808 5807 5807 5806 5805 5805 5804 5804 5803 5802 5802 5801 5801 5801 5800 5800 5800 5800 5801 5801 5802 5802 5802 5803 5803 5803 5804 5804 5805 5805 5806 5806 5806 5806 5806 5806 5806 5805 5804 5804 5803 5802 5802 5801 5800 5800 5799 5797 5796 5795 5794 5792 5791 5789 5788 5786 5785 5783 5780 5778 5776 5774 5773 5770 5767 5766 5764 5761 5756 5752 5751 5750 5746 5743 5741 5738 5735 5733 5731 5728 5724 5720 5717
5809 5809 5808 5808 5807 5806 5806 5805 5804 5803 5802 5801 5800 5800 5800 5799 5799 5799 5798 5798 5799 5799 5799 5799 5799 5800 5800 5800 5800 5801 5801 5801 5802 5802 5803 5803 5804 5804 5804 5805 5804 5804 5803 5802 5802 5801 5801 5800 5799 5798 5797 5796 5795 5794 5792 5791 5789 5787 5786 5784 5783 5782 5780 5777 5774 5773 5771 5769 5767 5764 5761 5759 5757 5752 5747 5746 5745 5741 5737 5735 5732 5729 5727 5724 5721 5717 5713 5710
5808 5807 5807 5806 5805 5805 5804 5803 5802 5800 5799 5798 5797 5797 5797 5796 5796 5796 5796 5796 5797 5797 5797 5798 5798 5798 5798 5798 5798 5799 5799 5799 5800 5801 5801 5801 5802 5802 5802 5802 5802 5801 5801 5800 5800 5799 5799 5798 5797 5796 5794 5793 5792 5791 5789 5787 5786 5784 5782 5780 5779 5777 5775 5773 5770 5768 5766 5764 5762 5759 5757 5755 5752 5747 5743 5740 5739 5735 5732 5729 5726 5723 5720 5718 5715 5711 5707 5704
5807 5806 5806 5805 5804 5803 5802 5801 5800 5798 5797 5796 5794 5794 5793 5793 5794 5794 5793 5794 5794 5795 5795 5795 5796 5796 5796 5796 5797 5797 5798 5798 5798 5799 5799 5800 5800 5800 5800 5800 5800 5799 5799 5798 5798 5797 5797 5796 5795 5793 5792 5790 5789 5788 5786 5784 5782 5780 5778 5776 5775 5773 5770 5768 5766 5764 5761 5759 5757 5754 5752 5750 5746 5742 5738 5735 5733 5729 5726 5724 5721 5716 5713 5710 5707 5704 5701 5698
5806 5805 5804 5803 5802 5801 5800 5798 5797 5796 5794 5793 5792 5791 5790 5790 5790 5791 5791 5791 5791 5792 5793 5793 5794 5794 5794 5795 5795 5796 5797 5797 5797 5797 5798 5798 5798 5798 5798 5798 5798 5797 5797 5796 5795 5795 5795 5793 5792 5790 5789 5787 5786 5785 5783 5781 5779 5777 5774 5773 5771 5768 5766 5764 5762 5759 5756 5754 5752 5748 5746 5744 5740 5737 5733 5729 5727 5724 5721 5718 5714 5710 5706 5703 5700 5697 5694 5692
5804 5803 5803 5801 5800 5799 5797 5796 5794 5792 5791 5790 5789 5787 5787 5787 5787 5788 5789 5789 5789 5790 5791 5791 5792 5792 5793 5794 5794 5795 5795 5795 5795 5796 5796 5796 5796 5796 5796 5796 5795 5795 5795 5794 5793 5793 5792 5791 5789 5787 5786 5784 5783 5781 5779 5777 5775 5773 5770 5768 5766 5763 5761 5759 5757 5755 5752 5749 5746 5743 5740 5738 5734 5731 5727 5724 5721 5717 5715 5712 5707 5704 5700 5697 5694 5691 5688 5686
5803 5802 5801 5799 5798 5796 5795 5793 5791 5789 5787 5786 5785 5784 5784 5784 5784 5784 5786 5787 5787 5788 5789 5789 5790 5791 5791 5792 5793 5793 5794 5794 5794 5794 5794 5794 5794 5794 5794 5794 5793 5793 5792 5791 5791 5790 5789 5788 5786 5784 5783 5781 5780 5778 5776 5774 5772 5769 5767 5764 5762 5759 5757 5754 5752 5750 5747 5744 5740 5737 5734 5731 5728 5725 5721 5718 5715 5711 5708 5705 5702 5699 5695 5691 5688 5685 5683 5680
5801 5800 5798 5797 5795 5793 5792 5789 5787 5785 5784 5782 5781 5780 5780 5781 5781 5782 5783 5785 5786 5786 5787 5788 5788 5789 5790 5791 5791 5792 5792 5792 5792 5792 5792 5792 5792 5792 5792 5792 5791 5791 5790 5789 5788 5788 5786 5785 5783 5782 5780 5778 5776 5774 5772 5770 5768 5765 5763 5760 5757 5755 5752 5749 5747 5744 5742 5739 5735 5731 5727 5724 5722 5719 5716 5712 5709 5705 5702 5699 5697 5693 5689 5686 5682 5680 5677 5674
5799 5798 5796 5795 5793 5791 5788 5786 5784 5783 5781 5779 5778 5777 5777 5778 5778 5780 5782 5784 5784 5785 5786 5786 5787 5788 5788 5789 5790 5790 5790 5791 5791 5791 5790 5790 5790 5790 5790 5790 5789 5788 5787 5787 5786 5785 5784 5782 5780 5778 5777 5775 5773 5770 5768 5765 5763 5760 5758 5755 5752 5750 5747 5744 5741 5738 5735 5733 5730 5725 5721 5718 5715 5712 5711 5708 5704 5700 5697 5694 5691 5688 5683 5681 5678 5675 5672 5669
5797 5796 5795 5793 5791 5788 5786 5785 5783 5781 5779 5778 5776 5775 5775 5775 5776 5778 5780 5782 5783 5784 5784 5785 5786 5786 5787 5788 5788 5788 5789 5789 5789 5789 5788 5788 5788 5788 5788 5787 5787 5786 5785 5784 5783 5782 5780 5779 5777 5775 5773 5771 5769 5766 5763 5761 5758 5756 5753 5750 5747 5744 5742 5739 5735 5732 5729 5728 5726 5720 5714 5713 5710 5706 5704 5702 5699 5695 5692 5689 5686 5682 5678 5676 5673 5670 5667 5664
5796 5795 5793 5791 5789 5787 5785 5784 5782 5780 5779 5777 5775 5774 5773 5774 5775 5777 5779 5780 5781 5782 5783 5784 5784 5785 5785 5786 5786 5787 5787 5787 5787 5787 5787 5786 5786 5786 5785 5785 5784 5783 5782 5781 5780 5778 5777 5775 5773 5771 5769 5767 5764 5762 5759 5757 5754 5751 5748 5745 5742 5739 5736 5733 5730 5727 5724 5723 5721 5714 5709 5707 5705 5702 5699 5696 5693 5690 5687 5684 5680 5677 5674 5671 5668 5665 5662 5659
5795 5793 5791 5790 5788 5787 5785 5783 5781 5780 5778 5776 5775 5773 5773 5773 5775 5777 5778 5779 5780 5781 5782 5783 5783 5784 5784 5784 5785 5785 5785 5785 5785 5785 5785 5784 5784 5783 5783 5782 5781 5780 5779 5778 5776 5775 5773 5772 5770 5767 5765 5763 5760 5757 5755 5752 5749 5746 5744 5740 5737 5734 5731 5727 5724 5721 5718 5717 5715 5710 5705 5701 5698 5697 5694 5689 5687 5685 5681 5678 5674 5672 5669 5666 5663 5660 5657 5654
5793 5792 5791 5790 5788 5786 5784 5783 5781 5780 5778 5777 5775 5774 5774 5774 5775 5777 5778 5778 5779 5780 5781 5782 5782 5782 5783 5783 5783 5783 5783 5783 5783 5783 5783 5782 5782 5781 5780 5779 5778 5777 5776 5775 5773 5772 5770 5768 5766 5763 5761 5759 5756 5753 5750 5747 5744 5741 5738 5735 5732 5728 5726 5722 5719 5716 5713 5711 5709 5704 5700 5696 5691 5689 5687 5684 5682 5679 5676 5672 5670 5667 5665 5662 5658 5655 5652 5649
5793 5792 5791 5789 5787 5786 5784 5783 5782 5780 5779 5777 5777 5776 5776 5775 5776 5777 5777 5778 5779 5780 5780 5781 5781 5781 5782 5782 5782 5782 5782 5782 5781 5781 5780 5780 5779 5778 5777 5776 5775 5774 5773 5771 5770 5768 5766 5764 5761 5759 5756 5754 5751 5748 5745 5742 5739 5736 5733 5730 5727 5724 5721 5718 5714 5711 5708 5705 5702 5698 5694 5691 5687 5683 5680 5678 5676 5673 5671 5668 5665 5663 5660 5657 5654 5650 5647 5644
5793 5792 5791 5789 5788 5787 5785 5784 5783 5781 5780 5779 5778 5778 5778 5777 5776 5777 5777 5778 5779 5779 5780 5780 5780 5781 5781 5781 5781 5781 5780 5780 5780 5779 5778 5778 5777 5776 5774 5773 5772 5771 5769 5768 5766 5764 5762 5760 5757 5755 5752 5749 5746 5743 5740 5737 5734 5731 5728 5725 5722 5719 5716 5713 5710 5706 5703 5699 5695 5692 5688 5685 5682 5678 5674 5672 5670 5668 5666 5664 5661 5658 5656 5652 5649 5645 5642 5638
5793 5792 5790 5789 5788 5787 5786 5785 5784 5783 5782 5781 5780 5780 5779 5778 5778 5778 5778 5779 5779 5779 5780 5780 5780 5780 5780 5780 5780 5780 5779 5778 5778 5777 5776 5775 5774 5773 5771 5770 5769 5767 5765 5764 5762 5761 5759 5756 5753 5751 5748 5745 5742 5739 5735 5733 5730 5727 5723 5719 5716 5712 5709 5707 5705 5701 5697 5694 5689 5687 5684 5680 5677 5675 5672 5669 5667 5665 5662 5660 5657 5654 5651 5647 5643 5640 5636 5632
5793 5791 5790 5790 5789 5788 5787 5786 5785 5784 5783 5783 5782 5781 5780 5779 5779 5779 5779 5780 5780 5780 5780 5780 5780 5780 5780 5779 5779 5778 5777 5777 5776 5774 5773 5772 5771 5770 5768 5767 5765 5764 5762 5760 5758 5756 5754 5752 5749 5746 5743 5740 5737 5734 5731 5728 5724 5721 5718 5714 5711 5707 5703 5700 5698 5695 5692 5689 5685 5683 5680 5677 5673 5671 5668 5666 5663 5661 5658 5654 5651 5648 5645 5641 5637 5633 5629 5625
5792 5791 5790 5790 5789 5789 5788 5787 5786 5786 5785 5784 5783 5782 5782 5781 5780 5780 5780 5780 5780 5780 5780 5780 5779 5779 5778 5778 5777 5776 5775 5774 5773 5772 5771 5770 5768 5767 5765 5764 5762 5760 5758 5756 5754 5751 5750 5747 5744 5741 5738 5735 5732 5729 5726 5722 5718 5715 5712 5709 5705 5702 5698 5695 5693 5690 5687 5684 5681 5679 5675 5672 5669 5666 5663 5661 5657 5654 5651 5648 5645 5642 5638 5635 5631 5627 5623 5619
5792 5791 5791 5790 5790 5789 5789 5788 5787 5786 5785 5784 5784 5783 5782 5782 5781 5781 5780 5780 5780 5780 5779 5779 5778 5777 5777 5776 5775 5774 5773 5772 5771 5769 5768 5767 5765 5764 5762 5760 5759 5757 5754 5752 5750 5748 5746 5743 5741 5737 5734 5731 5727 5724 5721 5718 5714 5710 5707 5704 5700 5697 5694 5691 5688 5685 5681 5677 5676 5674 5670 5668 5665 5660 5658 5655 5651 5647 5644 5641 5638 5635 5631 5627 5623 5620 5616 5612
5792 5791 5791 5791 5790 5790 5789 5788 5787 5786 5786 5785 5784 5783 5783 5782 5781 5781 5780 5780 5779 5779 5778 5778 5777 5776 5775 5774 5773 5772 5771 5770 5769 5767 5766 5765 5763 5761 5759 5757 5756 5753 5751 5749 5746 5744 5742 5740 5738 5734 5731 5727 5724 5721 5717 5714 5710 5707 5703 5700 5696 5693 5690 5686 5683 5680 5676 5672 5670 5669 5666 5663 5660 5656 5652 5649 5645 5641 5638 5635 5632 5628 5624 5621 5617 5613 5609 5605
5792 5791 5791 5791 5790 5790 5789 5788 5788 5787 5786 5785 5784 5783 5783 5782 5781 5781 5780 5779 5779 5778 5777 5776 5775 5774 5773 5773 5771 5770 5768 5767 5766 5764 5763 5762 5760 5758 5756 5754 5752 5750 5748 5745 5743 5740 5737 5736 5734 5731 5727 5723 5719 5716 5713 5710 5707 5703 5700 5697 5693 5689 5686 5682 5679 5675 5672 5667 5664 5663 5661 5658 5655 5652 5647 5643 5639 5635 5632 5629 5626 5622 5618 5615 5611 5607 5603 5599
5792 5792 5792 5791 5791 5790 5789 5789 5788 5787 5786 5785 5784 5783 5782 5782 5781 5780 5779 5778 5777 5777 5776 5775 5774 5773 5772 5771 5770 5768 5766 5765 5763 5762 5760 5759 5757 5756 5753 5751 5749 5747 5744 5742 5739 5736 5732 5730 5729 5726 5722 5718 5714 5711 5708 5705 5702 5699 5696 5693 5690 5686 5682 5679 5675 5671 5667 5663 5659 5657 5655 5652 5649 5646 5641 5637 5633 5630 5627 5624 5620 5617 5613 5609 5605 5601 5596 5592
5793 5792 5792 5791 5791 5790 5789 5789 5788 5787 5786 5785 5784 5783 5782 5781 5781 5780 5779 5778 5776 5775 5774 5773 5772 5771 5770 5768 5767 5766 5764 5762 5761 5759 5758 5756 5754 5753 5751 5748 5746 5743 5741 5738 5735 5732 5728 5725 5724 5721 5717 5713 5709 5706 5703 5700 5697 5694 5691 5688 5685 5682 5678 5675 5671 5668 5664 5659 5656 5653 5650 5647 5645 5641 5636 5632 5629 5626 5622 5619 5615 5612 5608 5603 5599 5594 5589 5584
5793 5793 5792 5791 5791 5790 5789 5789 5788 5787 5786 5785 5784 5783 5782 5781 5780 5779 5778 5777 5775 5774 5773 5772 5771 5769 5768 5767 5765 5764 5762 5761 5759 5757 5755 5754 5752 5750 5748 5745 5743 5740 5737 5734 5731 5728 5724 5721 5718 5716 5713 5709 5706 5702 5699 5696 5693 5690 5687 5684 5681 5677 5673 5669 5666 5663 5658 5654 5651 5647 5643 5642 5641 5636 5631 5627 5624 5621 5617 5613 5609 5605 5600 5595 5590 5585 5580 5574
5793 5793 5792 5792 5791 5790 5789 5788 5787 5786 5785 5785 5784 5782 5781 5780 5779 5778 5777 5775 5774 5773 5772 5770 5769 5768 5766 5765 5764 5762 5760 5759 5757 5755 5753 5751 5749 5747 5744 5741 5739 5736 5733 5730 5727 5724 5720 5717 5714 5712 5709 5705 5702 5699 5695 5692 5689 5686 5683 5679 5676 5673 5669 5664 5660 5657 5653 5649 5647 5642 5637 5636 5634 5630 5626 5622 5618 5614 5611 5606 5602 5597 5592 5587 5582 5577 5571 5565
5793 5793 5792 5791 5791 5790 5789 5788 5787 5786 5785 5784 5783 5782 5781 5779 5778 5777 5776 5774 5773 5772 5770 5769 5768 5766 5765 5763 5762 5760 5759 5757 5755 5753 5750 5748 5746 5743 5740 5737 5735 5732 5729 5726 5723 5719 5715 5712 5709 5707 5705 5702 5699 5695 5692 5688 5686 5683 5680 5676 5672 5669 5665 5661 5656 5652 5649 5645 5642 5637 5633 5631 5627 5624 5620 5616 5612 5608 5604 5599 5595 5590 5585 5579 5574 5568 5562 5557
5793 5792 5792 5791 5791 5790 5789 5788 5786 5785 5784 5783 5782 5781 5780 5779 5777 5776 5775 5773 5772 5770 5769 5768 5766 5765 5763 5761 5760 5758 5756 5754 5752 5750 5747 5745 5742 5740 5737 5734 5731 5728 5725 5722 5718 5715 5711 5708 5704 5701 5699 5697 5695 5691 5688 5685 5682 5679 5676 5672 5668 5665 5661 5657 5652 5648 5644 5641 5637 5633 5629 5624 5620 5618 5616 5611 5607 5602 5597 5592 5588 5582 5577 5571 5566 5560 5555 5550
5792 5792 5792 5791 5790 5789 5788 5787 5786 5785 5784 5783 5781 5780 5779 5778 5776 5775 5774 5772 5771 5769 5768 5766 5765 5763 5761 5759 5757 5755 5753 5751 5749 5746 5744 5741 5739 5736 5733 5730 5728 5724 5721 5718 5714 5711 5708 5705 5701 5697 5694 5691 5688 5685 5681 5678 5677 5674 5671 5667 5663 5659 5655 5651 5647 5643 5639 5635 5632 5628 5625 5620 5615 5612 5609 5605 5601 5597 5592 5587 5582 5576 5570 5564 5559 5554 5548 5542
5792 5792 5791 5791 5790 5789 5788 5787 5786 5784 5783 5782 5781 5779 5778 5777 5775 5774 5772 5771 5769 5768 5766 5765 5763 5761 5759 5757 5754 5752 5750 5747 5745 5742 5740 5737 5735 5732 5730 5727 5724 5720 5717 5714 5710 5707 5705 5702 5699 5695 5692 5688 5684 5681 5677 5673 5671 5669 5665 5661 5657 5653 5649 5645 5641 5638 5634 5630 5628 5624 5620 5617 5613 5608 5604 5601 5596 5591 5587 5582 5577 5571 5564 5558 5552 5546 5538 5531
5792 5791 5791 5790 5789 5788 5787 5786 5785 5784 5782 5781 5780 5778 5777 5775 5774 5773 5771 5770 5768 5766 5764 5763 5761 5759 5757 5754 5752 5750 5747 5745 5742 5739 5737 5734 5731 5729 5726 5723 5720 5717 5713 5710 5707 5704 5702 5699 5696 5693 5690 5686 5681 5677 5674 5670 5667 5664 5660 5656 5652 5648 5645 5641 5637 5633 5629 5625 5623 5620 5615 5612 5610 5605 5600 5595 5590 5585 5580 5574 5568 5562 5555 5548 5542 5535 5527 5520
5792 5791 5791 5790 5789 5788 5787 5786 5784 5783 5782 5780 5779 5778 5776 5775 5773 5772 5770 5768 5766 5765 5762 5760 5758 5756 5754 5751 5749 5746 5744 5742 5739 5737 5734 5731 5728 5726 5723 5720 5717 5714 5710 5707 5704 5701 5698 5695 5692 5689 5687 5684 5678 5674 5670 5667 5663 5660 5656 5652 5649 5645 5641 5637 5634 5630 5625 5621 5618 5616 5612 5607 5603 5599 5593 5586 5581 5576 5570 5564 5557 5550 5544 5537 5531 5524 5518 5512
5792 5791 5790 5789 5788 5787 5786 5785 5783 5782 5781 5780 5778 5777 5775 5774 5772 5770 5768 5766 5764 5762 5760 5757 5755 5753 5750 5748 5746 5743 5741 5738 5736 5734 5731 5728 5725 5722 5720 5717 5714 5711 5707 5704 5700 5697 5694 5691 5688 5685 5684 5681 5675 5670 5667 5663 5660 5657 5653 5649 5645 5641 5637 5633 5630 5625 5621 5617 5613 5610 5607 5601 5594 5590 5584 5578 5571 5566 5560 5553 5547 5540 5534 5529 5522 5516 5509 5503
5791 5791 5790 5789 5788 5787 5785 5784 5783 5781 5780 5779 5777 5775 5774 5772 5770 5768 5766 5764 5761 5759 5757 5754 5752 5750 5747 5745 5743 5740 5738 5735 5733 5730 5728 5725 5722 5719 5716 5713 5710 5707 5704 5700 5697 5693 5690 5687 5684 5680 5679 5676 5671 5667 5664 5660 5657 5653 5649 5644 5640 5636 5632 5628 5624 5619 5615 5611 5607 5602 5598 5593 5587 5581 5576 5569 5563 5557 5551 5545 5538 5531 5526 5521 5515 5508 5501 5493
5791 5790 5789 5788 5787 5786 5785 5783 5782 5781 5779 5777 5775 5774 5772 5770 5767 5765 5763 5761 5759 5756 5754 5752 5750 5748 5745 5743 5740 5738 5735 5733 5730 5727 5724 5722 5719 5716 5713 5710 5706 5703 5700 5696 5693 5690 5686 5683 5680 5676 5674 5672 5667 5663 5659 5655 5651 5647 5643 5639 5635 5631 5626 5621 5616 5612 5607 5603 5599 5594 5589 5585 5580 5575 5569 5562 5554 5548 5542 5537 5530 5524 5518 5511 5504 5498 5491 5482
5791 5790 5789 5788 5787 5785 5784 5782 5781 5779 5777 5775 5773 5771 5769 5767 5765 5763 5761 5759 5757 5755 5753 5751 5748 5746 5743 5741 5738 5736 5733 5730 5728 5725 5722 5719 5716 5713 5710 5707 5703 5700 5697 5693 5690 5686 5683 5680 5676 5672 5669 5667 5662 5658 5654 5650 5646 5642 5638 5634 5630 5625 5620 5615 5610 5606 5601 5596 5592 5587 5581 5576 5571 5566 5562 5557 5549 5541 5535 5528 5520 5514 5508 5500 5491 5484 5478 5471